FW0153 Weather Reports


time (UTC)temp
C
wind
direction
speed
KPH
gust
KPH
rain 1hr
cm
rain 24hr
cm
rain mn
cm
humidity
%
barometer
mb
20260901190505 33 126 6.4 0.0 0.00 0.00 0.00 36 1011.3
20260901190213 33 149 6.4 0.0 0.00 0.00 0.00 37 1011.3
20260901185505 33 148 37.0 0.0 0.00 0.00 0.00 37 1011.6
20260901185005 33 30 14.5 0.0 0.00 0.00 0.00 38 1011.6
20260901184505 33 104 0.0 0.0 0.00 0.00 0.00 38 1011.6
20260901184005 33 125 29.0 0.0 0.00 0.00 0.00 38 1011.6
20260901183505 33 142 20.9 0.0 0.00 0.00 0.00 39 1011.6
20260901183212 33 166 20.9 0.0 0.00 0.00 0.00 39 1011.6
20260901182713 33 62 14.5 0.0 0.00 0.00 0.00 38 1012.0
20260901182005 32 58 20.9 0.0 0.00 0.00 0.00 41 1012.0
20260901181505 32 111 14.5 0.0 0.00 0.00 0.00 41 1012.3
20260901181005 32 175 6.4 0.0 0.00 0.00 0.00 41 1012.0
20260901180505 32 149 14.5 0.0 0.00 0.00 0.00 42 1012.3
20260901180005 32 49 29.0 0.0 0.00 0.00 0.00 43 1012.3
20260901175505 32 146 6.4 0.0 0.00 0.00 0.00 42 1012.7
20260901175005 32 175 14.5 0.0 0.00 0.00 0.00 43 1012.7
20260901174505 32 31 29.0 0.0 0.00 0.00 0.00 42 1012.3
20260901174212 32 166 14.5 0.0 0.00 0.00 0.00 43 1012.7
20260901173505 31 152 14.5 0.0 0.00 0.00 0.00 46 1012.7
20260901173005 32 159 0.0 0.0 0.00 0.00 0.00 44 1012.7
20260901172713 32 148 20.9 0.0 0.00 0.00 0.00 46 1012.7
20260901172005 31 41 14.5 0.0 0.00 0.00 0.00 46 1012.7
20260901171505 31 144 20.9 0.0 0.00 0.00 0.00 45 1013.0
20260901171005 31 149 37.0 0.0 0.00 0.00 0.00 45 1012.7
20260901170504 31 130 14.5 0.0 0.00 0.00 0.00 48 1013.0
20260901170005 31 126 20.9 0.0 0.00 0.00 0.00 45 1013.0
20260901165505 31 164 6.4 0.0 0.00 0.00 0.00 49 1013.3
20260901165212 31 114 0.0 0.0 0.00 0.00 0.00 50 1013.3
20260901164505 31 86 29.0 0.0 0.00 0.00 0.00 49 1013.3
20260901164005 31 175 14.5 0.0 0.00 0.00 0.00 54 1013.3
20260901163713 31 164 14.5 0.0 0.00 0.00 0.00 52 1013.3
20260901163005 31 52 20.9 0.0 0.00 0.00 0.00 53 1013.3
20260901162504 30 96 0.0 0.0 0.00 0.00 0.00 55 1013.0
20260901162212 30 104 20.9 0.0 0.00 0.00 0.00 54 1013.3
20260901161505 30 174 6.4 0.0 0.00 0.00 0.00 55 1013.3
20260901161005 30 154 14.5 0.0 0.00 0.00 0.00 57 1013.3
20260901160505 30 33 14.5 0.0 0.00 0.00 0.00 58 1013.3
20260901160004 30 95 6.4 0.0 0.00 0.00 0.00 59 1013.3
20260901155713 30 163 14.5 0.0 0.00 0.00 0.00 59 1013.3
20260901155005 30 146 20.9 0.0 0.00 0.00 0.00 60 1013.3
20260901154505 29 175 43.5 0.0 0.00 0.00 0.00 60 1013.3
20260901154005 29 163 20.9 0.0 0.00 0.00 0.00 61 1013.3
20260901153712 29 165 37.0 0.0 0.00 0.00 0.00 61 1013.3
20260901153005 28 58 6.4 0.0 0.00 0.00 0.00 64 1013.3
20260901152504 29 178 20.9 0.0 0.00 0.00 0.00 62 1013.3
20260901152005 28 73 14.5 0.0 0.00 0.00 0.00 62 1013.0
20260901151505 28 30 20.9 0.0 0.00 0.00 0.00 63 1013.3
20260901151005 28 73 20.9 0.0 0.00 0.00 0.00 64 1013.3
20260901150505 28 76 20.9 0.0 0.00 0.00 0.00 66 1013.3
20260901150211 28 126 20.9 0.0 0.00 0.00 0.00 68 1013.3
20260901145505 28 97 14.5 0.0 0.00 0.00 0.00 70 1013.3
20260901145005 28 175 14.5 0.0 0.00 0.00 0.00 69 1013.3
20260901144505 27 151 14.5 0.0 0.00 0.00 0.00 70 1013.3
20260901144005 27 100 6.4 0.0 0.00 0.00 0.00 72 1013.3
20260901143505 27 97 14.5 0.0 0.00 0.00 0.00 73 1013.3
20260901143005 27 133 14.5 0.0 0.00 0.00 0.00 73 1013.3
20260901142505 27 164 6.4 0.0 0.00 0.00 0.00 75 1013.3
20260901142004 27 176 14.5 0.0 0.00 0.00 0.00 74 1013.3
20260901141505 27 151 20.9 0.0 0.00 0.00 0.00 76 1013.3
20260901141005 27 109 14.5 0.0 0.00 0.00 0.00 76 1013.0
20260901140505 26 143 14.5 0.0 0.00 0.00 0.00 77 1013.3
20260901140213 26 81 6.4 0.0 0.00 0.00 0.00 77 1013.0
20260901135505 26 38 6.4 0.0 0.00 0.00 0.00 79 1013.3
20260901135004 26 138 0.0 0.0 0.00 0.00 0.00 81 1013.0
20260901134712 26 122 14.5 0.0 0.00 0.00 0.00 82 1013.0
20260901134005 25 121 14.5 0.0 0.00 0.00 0.00 83 1013.0
20260901133505 25 74 6.4 0.0 0.00 0.00 0.00 83 1013.0
20260901133004 25 66 6.4 0.0 0.00 0.00 0.00 83 1013.0
20260901132714 25 124 0.0 0.0 0.00 0.00 0.00 85 1013.0
20260901132212 25 125 0.0 0.0 0.00 0.00 0.00 85 1013.0
20260901131714 25 120 0.0 0.0 0.00 0.00 0.00 86 1013.0
20260901131006 25 61 6.4 0.0 0.00 0.00 0.00 86 1013.0
20260901130505 25 120 0.0 0.0 0.00 0.00 0.00 86 1012.7
20260901130005 25 53 0.0 0.0 0.00 0.00 0.00 87 1012.7
20260901125713 25 109 0.0 0.0 0.00 0.00 0.00 88 1012.3
20260901125005 24 112 6.4 0.0 0.00 0.00 0.00 88 1012.7
20260901124711 24 94 6.4 0.0 0.00 0.00 0.00 89 1012.3
20260901124005 24 100 0.0 0.0 0.00 0.00 0.00 89 1012.7
20260901123505 24 100 0.0 0.0 0.00 0.00 0.00 89 1012.3
20260901123005 24 143 0.0 0.0 0.00 0.00 0.00 89 1012.3
20260901122505 24 124 0.0 0.0 0.00 0.00 0.00 88 1012.3
20260901122005 24 114 0.0 0.0 0.00 0.00 0.00 88 1012.3
20260901121505 24 125 0.0 0.0 0.00 0.00 0.00 88 1012.3
20260901121005 24 125 0.0 0.0 0.00 0.00 0.00 87 1012.3
20260901120505 24 112 6.4 0.0 0.00 0.00 0.00 87 1012.3
20260901120005 24 72 0.0 0.0 0.00 0.00 0.00 87 1012.3
20260901115505 24 116 0.0 0.0 0.00 0.00 0.00 87 1012.3
20260901115005 25 78 0.0 0.0 0.00 0.00 0.00 87 1012.3
20260901114505 25 128 0.0 0.0 0.00 0.00 0.00 86 1012.3
20260901114005 25 117 0.0 0.0 0.00 0.00 0.00 86 1012.3
20260901113505 25 112 0.0 0.0 0.00 0.00 0.00 86 1012.3
20260901113005 25 135 0.0 0.0 0.00 0.00 0.00 86 1012.3
20260901112504 25 119 0.0 0.0 0.00 0.00 0.00 86 1012.3
20260901112005 25 161 0.0 0.0 0.00 0.00 0.00 86 1012.3
20260901111713 25 142 6.4 0.0 0.00 0.00 0.00 85 1012.0
20260901111005 25 172 6.4 0.0 0.00 0.00 0.00 85 1012.3
20260901110505 25 117 0.0 0.0 0.00 0.00 0.00 85 1012.0
20260901110212 25 115 0.0 0.0 0.00 0.00 0.00 85 1012.3
20260901105505 25 108 6.4 0.0 0.00 0.00 0.00 85 1012.3
20260901105005 25 117 6.4 0.0 0.00 0.00 0.00 85 1012.3
20260901104713 25 155 14.5 0.0 0.00 0.00 0.00 84 1012.3
20260901104005 25 136 6.4 0.0 0.00 0.00 0.00 84 1012.3
20260901103713 25 156 29.0 0.0 0.00 0.00 0.00 84 1012.3
20260901103005 25 141 20.9 0.0 0.00 0.00 0.00 84 1012.0
20260901102712 25 146 0.0 0.0 0.00 0.00 0.00 84 1012.0
20260901102005 25 142 6.4 0.0 0.00 0.00 0.00 84 1012.3
20260901101712 25 180 14.5 0.0 0.00 0.00 0.00 85 1012.3
20260901101005 25 141 0.0 0.0 0.00 0.00 0.00 85 1012.3
20260901100712 25 132 0.0 0.0 0.00 0.00 0.00 85 1012.3
20260901100005 25 132 0.0 0.0 0.00 0.00 0.00 86 1012.3
20260901095505 25 127 0.0 0.0 0.00 0.00 0.00 86 1012.3
20260901095005 25 121 0.0 0.0 0.00 0.00 0.00 86 1012.3
20260901094505 25 127 0.0 0.0 0.00 0.00 0.00 86 1012.3
20260901094005 25 65 0.0 0.0 0.00 0.00 0.00 86 1012.3
20260901093504 25 115 0.0 0.0 0.00 0.00 0.00 86 1012.3
20260901093005 25 156 0.0 0.0 0.00 0.00 0.00 86 1012.3
20260901092505 25 115 6.4 0.0 0.00 0.00 0.00 86 1012.3
20260901092005 25 143 0.0 0.0 0.00 0.00 0.00 86 1012.3
20260901091505 25 110 0.0 0.0 0.00 0.00 0.00 86 1012.7
20260901091005 25 94 0.0 0.0 0.00 0.00 0.00 86 1012.7
20260901090505 25 108 6.4 0.0 0.00 0.00 0.00 85 1012.3
20260901090005 25 120 0.0 0.0 0.00 0.00 0.00 85 1012.7
20260901085505 25 91 0.0 0.0 0.00 0.00 0.00 85 1012.7
20260901085005 25 120 0.0 0.0 0.00 0.00 0.00 85 1012.7
20260901084505 25 117 0.0 0.0 0.00 0.00 0.00 85 1012.7
20260901084004 25 63 6.4 0.0 0.00 0.00 0.00 85 1012.7
20260901083505 25 131 0.0 0.0 0.00 0.00 0.00 85 1013.0
20260901083005 25 127 0.0 0.0 0.00 0.00 0.00 84 1012.7
20260901082712 25 130 0.0 0.0 0.00 0.00 0.00 84 1012.7
20260901082005 25 131 0.0 0.0 0.00 0.00 0.00 84 1012.7
20260901081505 25 113 0.0 0.0 0.00 0.00 0.00 84 1012.7
20260901081005 25 125 0.0 0.0 0.00 0.00 0.00 84 1013.0
20260901080505 25 158 0.0 0.0 0.00 0.00 0.00 84 1012.7
20260901080004 25 128 0.0 0.0 0.00 0.00 0.00 84 1012.7
20260901075505 25 137 0.0 0.0 0.00 0.00 0.00 83 1012.7
20260901075005 25 106 0.0 0.0 0.00 0.00 0.00 83 1012.7
20260901074505 25 82 0.0 0.0 0.00 0.00 0.00 83 1012.7
20260901074005 25 130 0.0 0.0 0.00 0.00 0.00 83 1012.7
20260901073505 25 81 14.5 0.0 0.00 0.00 0.00 82 1012.7
20260901073005 25 75 0.0 0.0 0.00 0.00 0.00 82 1013.0
20260901072506 25 63 6.4 0.0 0.00 0.00 0.00 82 1012.7
20260901072212 25 30 6.4 0.0 0.00 0.00 0.00 82 1013.0
20260901071711 25 148 0.0 0.0 0.00 0.00 0.00 82 1013.0
20260901071005 25 121 0.0 0.0 0.00 0.00 0.00 82 1013.0
20260901070505 25 156 0.0 0.0 0.00 0.00 0.00 82 1013.0
20260901070005 25 140 6.4 0.0 0.00 0.00 0.00 82 1013.0
20260901065505 25 153 0.0 0.0 0.00 0.00 0.00 82 1013.0
20260901065212 25 354 6.4 0.0 0.00 0.00 0.00 81 1012.7
20260901064713 25 132 0.0 0.0 0.00 0.00 0.00 81 1013.3
20260901064005 25 120 6.4 0.0 0.00 0.00 0.00 81 1013.0
20260901063713 26 138 14.5 0.0 0.00 0.00 0.00 81 1013.0
20260901063004 25 103 6.4 0.0 0.00 0.00 0.00 81 1013.0
20260901062505 25 78 14.5 0.0 0.00 0.00 0.00 81 1013.0
20260901062005 26 126 14.5 0.0 0.00 0.00 0.00 81 1013.3
20260901061505 26 143 6.4 0.0 0.00 0.00 0.00 81 1013.0
20260901061212 26 10 20.9 0.0 0.00 0.00 0.00 81 1013.0
20260901060505 26 57 6.4 0.0 0.00 0.00 0.00 81 1013.0
20260901060005 26 99 0.0 0.0 0.00 0.00 0.00 81 1013.0
20260901055505 26 121 0.0 0.0 0.00 0.00 0.00 80 1013.3
20260901055005 26 94 6.4 0.0 0.00 0.00 0.00 80 1013.3
20260901054505 26 125 6.4 0.0 0.00 0.00 0.00 80 1013.3
20260901054005 26 103 0.0 0.0 0.00 0.00 0.00 80 1012.7
20260901053505 26 23 0.0 0.0 0.00 0.00 0.00 80 1013.0
20260901053004 26 127 14.5 0.0 0.00 0.00 0.00 79 1013.0
20260901052505 26 59 14.5 0.0 0.00 0.00 0.00 79 1013.3
20260901052005 26 119 0.0 0.0 0.00 0.00 0.00 79 1013.0
20260901051505 26 75 29.0 0.0 0.00 0.00 0.00 79 1013.0
20260901051006 26 98 0.0 0.0 0.00 0.00 0.00 78 1013.3
20260901050505 26 97 0.0 0.0 0.00 0.00 0.00 78 1013.3
20260901045505 26 104 6.4 0.0 0.00 0.00 0.00 78 1013.0
20260901045005 26 144 6.4 0.0 0.00 0.00 0.00 78 1013.3
20260901044506 26 96 14.5 0.0 0.00 0.00 0.00 77 1013.3
20260901044214 26 154 6.4 0.0 0.00 0.00 0.00 77 1013.3
20260901043505 26 62 29.0 0.0 0.00 0.00 0.00 77 1013.3
20260901043005 26 131 6.4 0.0 0.00 0.00 0.00 76 1013.3
20260901042505 26 136 14.5 0.0 0.00 0.00 0.00 76 1013.0
20260901042005 26 73 14.5 0.0 0.00 0.00 0.00 76 1013.3
20260901041504 26 141 6.4 0.0 0.00 0.00 0.00 76 1013.3
20260901041005 26 319 20.9 0.0 0.00 0.00 0.00 75 1013.3
20260901040505 26 98 14.5 0.0 0.00 0.00 0.00 75 1013.3
20260901040005 26 149 14.5 0.0 0.00 0.00 0.00 75 1013.3
20260901035712 26 49 0.0 0.0 0.00 0.00 0.00 74 1013.3
20260901035005 26 116 6.4 0.0 0.00 0.00 0.00 74 1013.3
20260901034505 26 62 6.4 0.0 0.00 0.00 0.00 74 1013.3
20260901034005 26 62 14.5 0.0 0.00 0.00 0.00 74 1013.3
20260901033505 26 102 6.4 0.0 0.00 0.00 0.00 73 1013.0
20260901033004 26 99 29.0 0.0 0.00 0.00 0.00 73 1013.0
20260901032505 26 110 20.9 0.0 0.00 0.00 0.00 72 1013.0
20260901032005 26 68 14.5 0.0 0.00 0.00 0.00 72 1013.3
20260901031712 26 140 6.4 0.0 0.00 0.00 0.00 71 1013.0
20260901031005 26 83 6.4 0.0 0.00 0.00 0.00 71 1013.0
20260901030505 26 108 6.4 0.0 0.00 0.00 0.00 70 1012.7
20260901030004 27 62 14.5 0.0 0.00 0.00 0.00 70 1012.7
20260901025505 27 103 20.9 0.0 0.00 0.00 0.00 70 1012.3
20260901025213 27 37 14.5 0.0 0.00 0.00 0.00 69 1012.3
20260901024713 27 78 29.0 0.0 0.00 0.00 0.00 68 1012.3
20260901024212 27 17 20.9 0.0 0.00 0.00 0.00 67 1012.0
20260901023505 27 107 29.0 0.0 0.00 0.00 0.00 67 1012.0
20260901023212 27 87 6.4 0.0 0.00 0.00 0.00 66 1011.6
20260901022505 27 109 20.9 0.0 0.00 0.00 0.00 66 1011.6
20260901022212 27 96 20.9 0.0 0.00 0.00 0.00 65 1012.0
20260901021711 27 33 6.4 0.0 0.00 0.00 0.00 65 1011.6
20260901021005 27 143 14.5 0.0 0.00 0.00 0.00 64 1011.6
20260901020505 27 63 20.9 0.0 0.00 0.00 0.00 64 1011.3
20260901020212 27 63 20.9 0.0 0.00 0.00 0.00 63 1011.3
20260901015505 28 107 20.9 0.0 0.00 0.00 0.00 63 1011.3
20260901015005 28 34 37.0 0.0 0.00 0.00 0.00 62 1011.0
20260901014505 28 55 6.4 0.0 0.00 0.00 0.00 62 1011.0
20260901014005 28 63 20.9 0.0 0.00 0.00 0.00 60 1011.0
20260901013505 28 43 6.4 0.0 0.00 0.00 0.00 60 1011.3
20260901013005 28 104 20.9 0.0 0.00 0.00 0.00 59 1011.0
20260901012505 28 122 0.0 0.0 0.00 0.00 0.00 57 1011.0
20260901012005 28 114 6.4 0.0 0.00 0.00 0.00 56 1011.0
20260901011505 28 81 20.9 0.0 0.00 0.00 0.00 55 1010.6
20260901011004 28 82 29.0 0.0 0.00 0.00 0.00 54 1010.6
20260901010505 28 43 20.9 0.0 0.00 0.00 0.00 53 1010.6
20260901010005 29 45 14.5 0.0 0.00 0.00 0.00 52 1010.6
20260901005713 29 28 51.5 0.0 0.00 0.00 0.00 51 1010.6
20260901005005 29 64 20.9 0.0 0.00 0.00 0.00 51 1010.6
20260901004504 29 55 14.5 0.0 0.00 0.00 0.00 50 1010.3
20260901004005 30 49 14.5 0.0 0.00 0.00 0.00 49 1010.3
20260901003505 30 40 29.0 0.0 0.00 0.00 0.00 48 1010.3
20260901003005 30 201 20.9 0.0 0.00 0.00 0.00 49 1010.3
20260901002505 30 75 20.9 0.0 0.00 0.00 0.00 48 1010.3
20260901002005 30 12 14.5 0.0 0.00 0.00 0.00 47 1009.9
20260901001505 30 193 20.9 0.0 0.00 0.00 0.00 46 1009.9
20260901001004 30 109 29.0 0.0 0.00 0.00 0.00 45 1010.3
20260901000713 30 99 20.9 0.0 0.00 0.00 0.00 45 1009.9
20260901000005 31 261 20.9 0.0 0.00 0.00 0.00 44 1009.6
20260831235505 31 2 20.9 0.0 0.00 0.00 0.00 44 1009.6
20260831235211 31 112 37.0 0.0 0.00 0.00 0.00 43 1009.6
20260831234505 31 340 37.0 0.0 0.00 0.00 0.00 43 1009.6
20260831234005 31 42 37.0 0.0 0.00 0.00 0.00 42 1009.6
20260831233505 31 110 0.0 0.0 0.00 0.00 0.00 41 1009.6
20260831233213 31 348 20.9 0.0 0.00 0.00 0.00 40 1009.6
20260831232505 31 91 20.9 0.0 0.00 0.00 0.00 40 1009.6
20260831232211 32 96 43.5 0.0 0.00 0.00 0.00 40 1009.6
20260831231505 32 67 6.4 0.0 0.00 0.00 0.00 40 1009.6
20260831231005 32 44 14.5 0.0 0.00 0.00 0.00 40 1009.6
20260831230505 32 77 29.0 0.0 0.00 0.00 0.00 40 1009.6
20260831230213 32 50 14.5 0.0 0.00 0.00 0.00 40 1009.3
20260831225505 32 60 37.0 0.0 0.00 0.00 0.00 39 1009.3
20260831225211 33 51 37.0 0.0 0.00 0.00 0.00 37 1009.6
20260831224505 33 140 0.0 0.0 0.00 0.00 0.00 36 1009.6
20260831224005 33 131 20.9 0.0 0.00 0.00 0.00 36 1009.6
20260831223505 33 138 20.9 0.0 0.00 0.00 0.00 35 1009.6
20260831223213 33 80 6.4 0.0 0.00 0.00 0.00 34 1009.6
20260831222505 33 49 66.0 0.0 0.00 0.00 0.00 33 1009.6
20260831222005 33 108 29.0 0.0 0.00 0.00 0.00 33 1009.3
20260831221504 33 158 6.4 0.0 0.00 0.00 0.00 30 1009.6
20260831221005 34 131 43.5 0.0 0.00 0.00 0.00 30 1009.6
20260831220505 33 107 20.9 0.0 0.00 0.00 0.00 30 1009.6
20260831220213 34 144 20.9 0.0 0.00 0.00 0.00 30 1009.6
20260831215505 33 77 29.0 0.0 0.00 0.00 0.00 31 1009.6
20260831215213 33 86 6.4 0.0 0.00 0.00 0.00 32 1009.6
20260831214504 34 74 6.4 0.0 0.00 0.00 0.00 31 1009.6
20260831214213 34 45 6.4 0.0 0.00 0.00 0.00 31 1009.6
20260831213505 33 52 0.0 0.0 0.00 0.00 0.00 32 1009.6
20260831213005 34 24 20.9 0.0 0.00 0.00 0.00 31 1009.9
20260831212505 34 139 6.4 0.0 0.00 0.00 0.00 32 1009.6
20260831212005 34 82 20.9 0.0 0.00 0.00 0.00 32 1009.9
20260831211505 34 85 14.5 0.0 0.00 0.00 0.00 32 1009.9
20260831211004 34 158 6.4 0.0 0.00 0.00 0.00 32 1009.9
20260831210505 34 115 14.5 0.0 0.00 0.00 0.00 32 1010.3
20260831210005 33 90 20.9 0.0 0.00 0.00 0.00 33 1009.9
20260831205505 33 101 14.5 0.0 0.00 0.00 0.00 34 1009.9
20260831205005 33 45 14.5 0.0 0.00 0.00 0.00 34 1010.3
20260831204505 33 79 20.9 0.0 0.00 0.00 0.00 34 1010.3
20260831204212 34 36 20.9 0.0 0.00 0.00 0.00 33 1010.3
20260831203505 34 32 14.5 0.0 0.00 0.00 0.00 33 1010.6
20260831203212 35 131 20.9 0.0 0.00 0.00 0.00 32 1010.6
20260831202505 35 1 14.5 0.0 0.00 0.00 0.00 31 1010.6
20260831202005 35 49 6.4 0.0 0.00 0.00 0.00 29 1010.6
20260831201505 34 49 20.9 0.0 0.00 0.00 0.00 29 1010.6
20260831201005 34 57 20.9 0.0 0.00 0.00 0.00 29 1011.0
20260831200505 35 76 14.5 0.0 0.00 0.00 0.00 29 1011.0
20260831200005 34 169 20.9 0.0 0.00 0.00 0.00 30 1011.0
20260831195505 34 128 14.5 0.0 0.00 0.00 0.00 31 1011.0
20260831195005 35 41 20.9 0.0 0.00 0.00 0.00 31 1011.0
20260831194505 35 52 14.5 0.0 0.00 0.00 0.00 32 1011.0
20260831194005 35 158 6.4 0.0 0.00 0.00 0.00 33 1011.3
20260831193505 33 76 6.4 0.0 0.00 0.00 0.00 34 1011.3
20260831193212 33 128 20.9 0.0 0.00 0.00 0.00 33 1011.3
20260831192505 34 338 20.9 0.0 0.00 0.00 0.00 33 1011.3
20260831192004 35 100 14.5 0.0 0.00 0.00 0.00 34 1011.6
20260831191505 33 141 14.5 0.0 0.00 0.00 0.00 33 1011.6
20260831191005 33 82 14.5 0.0 0.00 0.00 0.00 34 1011.6
20260831190713 33 60 37.0 0.0 0.00 0.00 0.00 34 1011.6